TVS21D LKPR-LIRP

Flight info

Callsign TVS21D
Flight time 1h 12m
Altitude 36000
Route DOBEN DCT RUDAP P31 DOSEL DCT KUMOM DCT DETSA/N0457F350 DCT GAVRA DCT KUGIX Y662 AKUTO L12 MAREL
Aircraft A320/M-SDE3FGHIRWY/LB1

Departure

Time 2026-05-05 17:58
Airport Václav Havel Airport Prague (LKPR)

Arrival

Time 2026-05-05 19:11
Airport Pisa International Airport (LIRP)
Time Latitude Longitude Altitude Speed Heading
2026-05-05 17:41 50.10802 14.26143 1170 ft 0 kts 124°
2026-05-05 17:50 50.10802 14.26142 1170 ft 0 kts 124°
2026-05-05 17:52 50.10801 14.26145 1170 ft 2 kts 124°
2026-05-05 17:53 50.10777 14.26196 1169 ft 12 kts 130°
2026-05-05 17:53 50.10721 14.26164 1174 ft 9 kts 215°
2026-05-05 17:53 50.10655 14.26099 1172 ft 11 kts 214°
2026-05-05 17:53 50.10595 14.26038 1170 ft 12 kts 212°
2026-05-05 17:54 50.10532 14.25960 1174 ft 11 kts 242°
2026-05-05 17:54 50.10549 14.25865 1172 ft 8 kts 304°
2026-05-05 17:54 50.10582 14.25790 1172 ft 9 kts 303°
2026-05-05 17:54 50.10615 14.25701 1173 ft 9 kts 298°
2026-05-05 17:55 50.10641 14.25614 1172 ft 9 kts 280°
2026-05-05 17:55 50.10619 14.25530 1170 ft 8 kts 236°
2026-05-05 17:55 50.10595 14.25462 1170 ft 7 kts 253°
2026-05-05 17:55 50.10586 14.25386 1169 ft 8 kts 261°
2026-05-05 17:56 50.10578 14.25309 1169 ft 5 kts 258°
2026-05-05 17:56 50.10573 14.25271 1165 ft 1 kts 257°
2026-05-05 17:56 50.10565 14.25221 1167 ft 9 kts 255°
2026-05-05 17:56 50.10534 14.25117 1166 ft 6 kts 215°
2026-05-05 17:57 50.10519 14.25127 1165 ft 1 kts 144°
2026-05-05 17:57 50.10504 14.25151 1167 ft 0 kts 128°
2026-05-05 17:57 50.10457 14.25247 1169 ft 40 kts 127°
2026-05-05 17:57 50.10154 14.25875 1189 ft 103 kts 126°
2026-05-05 17:58 50.09618 14.26984 1258 ft 145 kts 126°
2026-05-05 17:58 50.09020 14.28204 1817 ft 143 kts 124°
2026-05-05 17:58 50.08404 14.29474 2262 ft 150 kts 121°
2026-05-05 17:58 50.07776 14.30793 2746 ft 154 kts 122°
2026-05-05 17:59 50.07113 14.32174 3042 ft 169 kts 123°
2026-05-05 17:59 50.06370 14.33740 3172 ft 194 kts 124°
2026-05-05 17:59 50.05494 14.35577 3265 ft 224 kts 125°
2026-05-05 17:59 50.04499 14.37618 3557 ft 249 kts 125°
2026-05-05 18:00 50.03408 14.39840 4126 ft 263 kts 127°
2026-05-05 18:00 50.02291 14.42109 4986 ft 266 kts 127°
2026-05-05 18:00 50.01158 14.44411 5874 ft 269 kts 127°
2026-05-05 18:00 50.00392 14.45982 6407 ft 271 kts 127°
2026-05-05 18:01 49.99268 14.48319 7166 ft 275 kts 127°
2026-05-05 18:01 49.98130 14.50729 7938 ft 279 kts 127°
2026-05-05 18:01 49.96812 14.52943 8699 ft 280 kts 146°
2026-05-05 18:01 49.95053 14.54198 9462 ft 280 kts 170°
2026-05-05 18:02 49.93097 14.54292 9999 ft 290 kts 192°
2026-05-05 18:02 49.91180 14.53063 10194 ft 312 kts 215°
2026-05-05 18:02 49.89641 14.50534 10359 ft 337 kts 238°
2026-05-05 18:02 49.88747 14.47050 10477 ft 361 kts 253°
2026-05-05 18:03 49.88132 14.43156 10591 ft 381 kts 255°
2026-05-05 18:03 49.87520 14.39113 11031 ft 389 kts 255°
2026-05-05 18:03 49.86903 14.35005 11587 ft 394 kts 255°
2026-05-05 18:03 49.86278 14.30833 12172 ft 398 kts 255°
2026-05-05 18:04 49.85651 14.26639 12736 ft 402 kts 255°
2026-05-05 18:04 49.85020 14.22404 13325 ft 405 kts 255°
2026-05-05 18:04 49.84354 14.18146 13851 ft 408 kts 251°
2026-05-05 18:04 49.83149 14.14179 14350 ft 408 kts 234°
2026-05-05 18:05 49.81282 14.10886 14868 ft 409 kts 223°
2026-05-05 18:05 49.79237 14.07811 15377 ft 411 kts 223°
2026-05-05 18:05 49.77176 14.04737 15865 ft 413 kts 223°
2026-05-05 18:05 49.75100 14.01648 16353 ft 415 kts 223°
2026-05-05 18:06 49.73016 13.98547 16827 ft 417 kts 223°
2026-05-05 18:06 49.71600 13.96438 17152 ft 418 kts 223°
2026-05-05 18:06 49.68823 13.92300 17767 ft 420 kts 223°
2026-05-05 18:06 49.66711 13.89153 18183 ft 422 kts 223°
2026-05-05 18:07 49.64590 13.85999 18550 ft 424 kts 223°
2026-05-05 18:07 49.62454 13.82825 18912 ft 426 kts 223°
2026-05-05 18:07 49.60312 13.79649 19266 ft 428 kts 223°
2026-05-05 18:07 49.58160 13.76463 19607 ft 430 kts 223°
2026-05-05 18:08 49.56003 13.73270 19944 ft 431 kts 223°
2026-05-05 18:08 49.53834 13.70064 20257 ft 433 kts 223°
2026-05-05 18:08 49.51652 13.66841 20573 ft 435 kts 223°
2026-05-05 18:08 49.49466 13.63616 20877 ft 437 kts 223°
2026-05-05 18:09 49.47266 13.60374 21163 ft 439 kts 223°
2026-05-05 18:09 49.45057 13.57126 21444 ft 441 kts 223°
2026-05-05 18:09 49.42837 13.53864 21711 ft 442 kts 223°
2026-05-05 18:09 49.40606 13.50588 21987 ft 444 kts 223°
2026-05-05 18:10 49.38369 13.47306 22250 ft 446 kts 222°
2026-05-05 18:10 49.35958 13.44323 22486 ft 447 kts 214°
2026-05-05 18:10 49.33406 13.41586 22717 ft 449 kts 214°
2026-05-05 18:10 49.30871 13.38879 22948 ft 450 kts 214°
2026-05-05 18:11 49.28294 13.36135 23172 ft 452 kts 213°
2026-05-05 18:11 49.25703 13.33383 23373 ft 453 kts 213°
2026-05-05 18:11 49.23106 13.30630 23545 ft 454 kts 213°
2026-05-05 18:11 49.20512 13.27878 23802 ft 453 kts 213°
2026-05-05 18:12 49.17922 13.25132 24088 ft 452 kts 213°
2026-05-05 18:12 49.15345 13.22405 24369 ft 450 kts 213°
2026-05-05 18:12 49.12773 13.19687 24656 ft 449 kts 213°
2026-05-05 18:12 49.10211 13.16981 24958 ft 447 kts 213°
2026-05-05 18:13 49.07651 13.14284 25242 ft 446 kts 213°
2026-05-05 18:13 49.05096 13.11593 25558 ft 445 kts 213°
2026-05-05 18:13 49.02553 13.08920 25873 ft 443 kts 213°
2026-05-05 18:13 49.00022 13.06258 26193 ft 442 kts 213°
2026-05-05 18:14 48.97498 13.03605 26517 ft 440 kts 213°
2026-05-05 18:14 48.94983 13.00966 26830 ft 439 kts 213°
2026-05-05 18:14 48.92470 12.98338 27161 ft 437 kts 213°
2026-05-05 18:14 48.89968 12.95724 27509 ft 436 kts 213°
2026-05-05 18:15 48.87469 12.93113 27857 ft 434 kts 213°
2026-05-05 18:15 48.84992 12.90525 28217 ft 432 kts 213°
2026-05-05 18:15 48.82515 12.87943 28568 ft 431 kts 213°
2026-05-05 18:15 48.80044 12.85374 28900 ft 430 kts 213°
2026-05-05 18:16 48.77577 12.82815 29241 ft 429 kts 213°
2026-05-05 18:16 48.75123 12.80267 29575 ft 428 kts 213°
2026-05-05 18:16 48.72702 12.77755 29898 ft 427 kts 213°
2026-05-05 18:16 48.70226 12.75194 30177 ft 426 kts 213°
2026-05-05 18:17 48.67811 12.72700 30444 ft 425 kts 213°
2026-05-05 18:17 48.65341 12.70148 30722 ft 424 kts 213°
2026-05-05 18:17 48.62907 12.67633 30986 ft 423 kts 213°
2026-05-05 18:17 48.60507 12.65159 31280 ft 422 kts 213°
2026-05-05 18:18 48.58080 12.62660 31563 ft 421 kts 214°
2026-05-05 18:18 48.55657 12.60170 31847 ft 420 kts 214°
2026-05-05 18:18 48.53244 12.57696 32143 ft 419 kts 214°
2026-05-05 18:18 48.50839 12.55233 32439 ft 418 kts 214°
2026-05-05 18:19 48.48432 12.52769 32730 ft 416 kts 214°
2026-05-05 18:19 48.45994 12.50430 33011 ft 415 kts 208°
2026-05-05 18:19 48.43343 12.48696 33300 ft 415 kts 199°
2026-05-05 18:19 48.40526 12.47688 33595 ft 417 kts 190°
2026-05-05 18:20 48.37634 12.47291 33863 ft 417 kts 187°
2026-05-05 18:20 48.34739 12.46946 34089 ft 417 kts 187°
2026-05-05 18:20 48.31846 12.46590 34310 ft 417 kts 188°
2026-05-05 18:20 48.28961 12.46226 34518 ft 416 kts 188°
2026-05-05 18:21 48.26073 12.45860 34716 ft 417 kts 188°
2026-05-05 18:21 48.23179 12.45495 34907 ft 417 kts 188°
2026-05-05 18:21 48.20292 12.45128 35094 ft 417 kts 188°
2026-05-05 18:21 48.17399 12.44761 35279 ft 417 kts 188°
2026-05-05 18:22 48.14507 12.44401 35452 ft 417 kts 187°
2026-05-05 18:22 48.11613 12.44047 35613 ft 417 kts 187°
2026-05-05 18:22 48.08719 12.43694 35777 ft 418 kts 187°
2026-05-05 18:23 48.02874 12.42964 35828 ft 424 kts 188°
2026-05-05 18:23 47.96961 12.42223 35825 ft 427 kts 188°
2026-05-05 18:24 47.91037 12.41486 35828 ft 427 kts 188°
2026-05-05 18:24 47.85163 12.40282 35830 ft 426 kts 192°
2026-05-05 18:25 47.79341 12.38733 35825 ft 425 kts 193°
2026-05-05 18:25 47.73515 12.37135 35831 ft 426 kts 193°
2026-05-05 18:26 47.67683 12.35584 35837 ft 426 kts 193°
2026-05-05 18:26 47.61843 12.34077 35840 ft 426 kts 193°
2026-05-05 18:27 47.55998 12.32576 35833 ft 425 kts 193°
2026-05-05 18:27 47.50148 12.31067 35847 ft 426 kts 193°
2026-05-05 18:28 47.41383 12.28810 35853 ft 426 kts 193°
2026-05-05 18:28 47.35531 12.27309 35865 ft 427 kts 193°
2026-05-05 18:29 47.29682 12.25805 35878 ft 426 kts 193°
2026-05-05 18:29 47.23834 12.24304 35891 ft 427 kts 193°
2026-05-05 18:30 47.18020 12.22820 35907 ft 427 kts 193°
2026-05-05 18:30 47.12128 12.21325 35915 ft 427 kts 193°
2026-05-05 18:31 47.06273 12.19840 35932 ft 427 kts 193°
2026-05-05 18:31 47.00444 12.18362 35960 ft 427 kts 193°
2026-05-05 18:32 46.94588 12.16883 35983 ft 427 kts 193°
2026-05-05 18:32 46.88721 12.15389 36004 ft 428 kts 193°
2026-05-05 18:33 46.82853 12.13907 36020 ft 428 kts 193°
2026-05-05 18:33 46.76977 12.12440 36029 ft 428 kts 193°
2026-05-05 18:34 46.71099 12.10977 36030 ft 429 kts 193°
2026-05-05 18:34 46.65217 12.09505 36024 ft 429 kts 193°
2026-05-05 18:35 46.59335 12.08032 36011 ft 429 kts 193°
2026-05-05 18:35 46.53614 12.05732 36001 ft 426 kts 200°
2026-05-05 18:36 46.47960 12.03149 35998 ft 426 kts 200°
2026-05-05 18:36 46.42312 12.00554 35994 ft 426 kts 200°
2026-05-05 18:37 46.36670 11.97970 36001 ft 425 kts 200°
2026-05-05 18:37 46.31023 11.95396 36003 ft 425 kts 200°
2026-05-05 18:38 46.25373 11.92831 36008 ft 425 kts 200°
2026-05-05 18:38 46.19725 11.90274 36003 ft 425 kts 200°
2026-05-05 18:39 46.15029 11.88147 36012 ft 425 kts 200°
2026-05-05 18:39 46.09383 11.85599 36011 ft 425 kts 201°
2026-05-05 18:40 46.02809 11.82637 36020 ft 426 kts 201°
2026-05-05 18:40 45.98072 11.80504 36025 ft 425 kts 202°
2026-05-05 18:41 45.92670 11.77232 36049 ft 419 kts 207°
2026-05-05 18:41 45.87357 11.73857 36046 ft 416 kts 208°
2026-05-05 18:42 45.82196 11.70230 36012 ft 416 kts 211°
2026-05-05 18:42 45.77108 11.66272 35999 ft 416 kts 212°
2026-05-05 18:43 45.72016 11.62315 35998 ft 417 kts 212°
2026-05-05 18:43 45.66886 11.58443 36000 ft 417 kts 211°
2026-05-05 18:44 45.61739 11.54605 36004 ft 417 kts 211°
2026-05-05 18:44 45.56595 11.50771 36009 ft 417 kts 212°
2026-05-05 18:45 45.51452 11.46926 36014 ft 417 kts 212°
2026-05-05 18:45 45.46318 11.43105 36024 ft 416 kts 212°
2026-05-05 18:46 45.41184 11.39281 36019 ft 416 kts 212°
2026-05-05 18:46 45.36055 11.35470 36010 ft 415 kts 212°
2026-05-05 18:47 45.30932 11.31687 36000 ft 415 kts 212°
2026-05-05 18:47 45.25818 11.27917 35991 ft 414 kts 212°
2026-05-05 18:48 45.20711 11.24142 35977 ft 413 kts 212°
2026-05-05 18:48 45.15613 11.20383 35971 ft 413 kts 212°
2026-05-05 18:49 45.10544 11.16667 35974 ft 412 kts 212°
2026-05-05 18:49 45.05450 11.12937 35976 ft 412 kts 212°
2026-05-05 18:50 45.00369 11.09217 35996 ft 411 kts 212°
2026-05-05 18:50 44.95287 11.05499 36003 ft 411 kts 212°
2026-05-05 18:51 44.90217 11.01801 36023 ft 410 kts 212°
2026-05-05 18:51 44.85150 10.98115 36035 ft 409 kts 212°
2026-05-05 18:52 44.80099 10.94443 36046 ft 409 kts 212°
2026-05-05 18:52 44.75153 10.90863 36036 ft 408 kts 212°
2026-05-05 18:53 44.72630 10.89045 35773 ft 407 kts 212°
2026-05-05 18:53 44.70116 10.87238 35521 ft 405 kts 212°
2026-05-05 18:53 44.67611 10.85437 35276 ft 404 kts 212°
2026-05-05 18:53 44.65114 10.83638 35030 ft 403 kts 212°
2026-05-05 18:54 44.62629 10.81846 34791 ft 401 kts 212°
2026-05-05 18:54 44.60145 10.80056 34550 ft 400 kts 212°
2026-05-05 18:54 44.57671 10.78276 34319 ft 399 kts 212°
2026-05-05 18:54 44.55205 10.76501 34080 ft 398 kts 212°
2026-05-05 18:55 44.52744 10.74735 33816 ft 397 kts 212°
2026-05-05 18:55 44.49960 10.72735 33509 ft 398 kts 212°
2026-05-05 18:55 44.47817 10.71200 33269 ft 399 kts 212°
2026-05-05 18:55 44.44813 10.69053 32952 ft 401 kts 212°
2026-05-05 18:56 44.42851 10.67649 32743 ft 402 kts 212°
2026-05-05 18:56 44.40360 10.65867 31976 ft 403 kts 212°
2026-05-05 18:56 44.37892 10.64104 31128 ft 403 kts 212°
2026-05-05 18:56 44.35390 10.62320 30302 ft 404 kts 212°
2026-05-05 18:57 44.32873 10.60528 29255 ft 406 kts 211°
2026-05-05 18:57 44.30358 10.58740 28260 ft 407 kts 211°
2026-05-05 18:57 44.27833 10.56948 27324 ft 406 kts 210°
2026-05-05 18:57 44.25304 10.55155 26258 ft 409 kts 210°
2026-05-05 18:58 44.22747 10.53340 25188 ft 414 kts 209°
2026-05-05 18:58 44.20176 10.51517 24137 ft 416 kts 209°
2026-05-05 18:58 44.17583 10.49679 23078 ft 419 kts 208°
2026-05-05 18:58 44.14994 10.47846 22278 ft 415 kts 208°
2026-05-05 18:59 44.12435 10.46036 21525 ft 410 kts 208°
2026-05-05 18:59 44.09902 10.44246 20775 ft 407 kts 208°
2026-05-05 18:59 44.07385 10.42471 20041 ft 403 kts 208°
2026-05-05 18:59 44.04895 10.40718 19311 ft 400 kts 208°
2026-05-05 19:00 44.02415 10.38974 18606 ft 398 kts 208°
2026-05-05 19:00 43.99955 10.37246 17852 ft 395 kts 209°
2026-05-05 19:00 43.97509 10.35527 17154 ft 391 kts 208°
2026-05-05 19:00 43.95096 10.33834 16502 ft 388 kts 209°
2026-05-05 19:01 43.92692 10.32148 15856 ft 385 kts 209°
2026-05-05 19:01 43.90316 10.30486 15236 ft 381 kts 209°
2026-05-05 19:01 43.87953 10.28833 14622 ft 379 kts 209°
2026-05-05 19:01 43.85610 10.27194 14036 ft 376 kts 209°
2026-05-05 19:02 43.83429 10.25668 13240 ft 377 kts 209°
2026-05-05 19:02 43.81072 10.24022 12402 ft 379 kts 209°
2026-05-05 19:02 43.78692 10.22469 11659 ft 378 kts 205°
2026-05-05 19:02 43.76258 10.21113 10942 ft 376 kts 204°
2026-05-05 19:03 43.73840 10.19778 10292 ft 372 kts 204°
2026-05-05 19:03 43.71483 10.18479 9915 ft 360 kts 204°
2026-05-05 19:03 43.69165 10.17201 9168 ft 358 kts 204°
2026-05-05 19:03 43.66864 10.15922 8443 ft 356 kts 204°
2026-05-05 19:04 43.64580 10.14643 7735 ft 353 kts 202°
2026-05-05 19:04 43.62198 10.13901 7063 ft 352 kts 186°
2026-05-05 19:04 43.59759 10.13734 6319 ft 346 kts 184°
2026-05-05 19:04 43.57440 10.13609 5849 ft 322 kts 182°
2026-05-05 19:05 43.55288 10.14011 5306 ft 307 kts 162°
2026-05-05 19:05 43.53484 10.15500 4531 ft 303 kts 137°
2026-05-05 19:05 43.52200 10.17786 3659 ft 302 kts 125°
2026-05-05 19:05 43.51155 10.20240 2885 ft 298 kts 116°
2026-05-05 19:06 43.50406 10.22834 2610 ft 277 kts 105°
2026-05-05 19:06 43.50402 10.25328 2510 ft 259 kts 75°
2026-05-05 19:06 43.51285 10.27445 2526 ft 254 kts 44°
2026-05-05 19:06 43.52734 10.28603 2523 ft 237 kts 12°
2026-05-05 19:07 43.54311 10.28914 2524 ft 221 kts 359°
2026-05-05 19:07 43.55808 10.28869 2553 ft 208 kts 355°
2026-05-05 19:07 43.57199 10.28809 2456 ft 196 kts
2026-05-05 19:07 43.58485 10.29315 2199 ft 187 kts 28°
2026-05-05 19:08 43.59489 10.30281 1991 ft 168 kts 38°
2026-05-05 19:08 43.60394 10.31208 1768 ft 158 kts 38°
2026-05-05 19:08 43.61272 10.32109 1567 ft 155 kts 38°
2026-05-05 19:08 43.62137 10.32999 1363 ft 154 kts 37°
2026-05-05 19:09 43.62987 10.33873 1151 ft 151 kts 36°
2026-05-05 19:09 43.63829 10.34739 954 ft 151 kts 36°
2026-05-05 19:09 43.64668 10.35605 738 ft 150 kts 38°
2026-05-05 19:09 43.65494 10.36462 496 ft 147 kts 37°
2026-05-05 19:10 43.66311 10.37298 308 ft 146 kts 36°
2026-05-05 19:10 43.67122 10.38133 110 ft 144 kts 37°
2026-05-05 19:10 43.67904 10.38937 19 ft 128 kts 37°
2026-05-05 19:10 43.68488 10.39540 20 ft 80 kts 36°
2026-05-05 19:11 43.68843 10.39904 18 ft 40 kts 37°
2026-05-05 19:11 43.69041 10.40115 20 ft 33 kts 38°
2026-05-05 19:11 43.69224 10.40299 20 ft 18 kts 33°
2026-05-05 19:11 43.69287 10.40271 19 ft 8 kts 315°
2026-05-05 19:12 43.69336 10.40193 20 ft 16 kts 306°
2026-05-05 19:12 43.69443 10.40096 19 ft 22 kts 352°
2026-05-05 19:12 43.69603 10.40064 15 ft 22 kts 352°
2026-05-05 19:12 43.69715 10.40082 15 ft 15 kts 12°
2026-05-05 19:13 43.69762 10.40093 15 ft 3 kts
2026-05-05 19:13 43.69763 10.40093 15 ft 0 kts